timestamp,surface_pressure_avg,surface_temp_avg,battery_voltage,lat,long
2019-09-04 00:00:00+00:00,244.8681,17.4,12.97,47.84626,-54.09684
2019-09-04 00:10:00+00:00,254.3381,17.4,12.89,47.84626,-54.09684
2019-09-04 00:20:00+00:00,262.6847,17.4,12.97,47.84626,-54.09684
2019-09-04 00:30:00+00:00,265.9747,17.4,12.97,47.84626,-54.09684
2019-09-04 00:40:00+00:00,273.1297,17.4,12.97,47.84626,-54.09684
2019-09-04 00:50:00+00:00,286.603,17.4,12.97,47.84626,-54.09684
2019-09-04 01:00:00+00:00,294.2247,17.4,12.89,47.84626,-54.09684
2019-09-04 01:10:00+00:00,298.488,17.4,12.81,47.84626,-54.09684
2019-09-04 01:20:00+00:00,306.893,17.4,12.97,47.84626,-54.09684
2019-09-04 01:30:00+00:00,319.3646,17.4,12.97,47.84626,-54.09684
2019-09-04 01:40:00+00:00,326.4196,17.4,12.97,47.84626,-54.09684
2019-09-04 01:50:00+00:00,332.118,17.4,12.97,47.84626,-54.09684
2019-09-04 02:00:00+00:00,337.0329,17.4,12.89,47.84626,-54.09684
2019-09-04 02:10:00+00:00,342.503,17.4,12.81,47.84626,-54.09684
2019-09-04 02:20:00+00:00,346.4529,17.4,12.89,47.84626,-54.09684
2019-09-04 02:30:00+00:00,345.9597,17.4,12.89,47.84626,-54.09684
2019-09-04 02:40:00+00:00,344.3195,17.4,12.89,47.84626,-54.09684
2019-09-04 02:50:00+00:00,346.8763,17.4,12.97,47.84626,-54.09684
2019-09-04 03:00:00+00:00,350.0146,17.4,12.89,47.84626,-54.09684
2019-09-04 03:10:00+00:00,347.1497,17.4,12.81,47.84626,-54.09684
2019-09-04 03:20:00+00:00,347.8781,17.4,12.89,47.84626,-54.09684
2019-09-04 03:30:00+00:00,349.0247,17.4,12.89,47.84626,-54.09684
2019-09-04 03:40:00+00:00,346.6279,17.4,12.89,47.84626,-54.09684
2019-09-04 03:50:00+00:00,345.038,17.4,12.89,47.84626,-54.09684
2019-09-04 04:00:00+00:00,343.9012,17.4,12.81,47.84626,-54.09684
2019-09-04 04:10:00+00:00,340.4431,17.4,12.73,47.84626,-54.09684
2019-09-04 04:20:00+00:00,335.0997,17.4,12.81,47.84626,-54.09684
2019-09-04 04:30:00+00:00,333.1113,17.4,12.89,47.84626,-54.09684
2019-09-04 04:40:00+00:00,330.7646,17.4,12.89,47.84626,-54.09684
2019-09-04 04:50:00+00:00,325.7813,17.4,12.89,47.84626,-54.09684
2019-09-04 05:00:00+00:00,318.1479,17.4,12.81,47.84626,-54.09684
2019-09-04 05:10:00+00:00,310.8647,17.4,12.73,47.84626,-54.09684
2019-09-04 05:20:00+00:00,306.2146,17.4,12.81,47.84626,-54.09684
2019-09-04 05:30:00+00:00,298.1297,17.4,12.81,47.84626,-54.09684
2019-09-04 05:40:00+00:00,285.0964,17.4,12.89,47.84626,-54.09684
2019-09-04 05:50:00+00:00,273.6314,17.4,12.89,47.84626,-54.09684
2019-09-04 06:00:00+00:00,263.2964,17.39,12.81,47.84626,-54.09684
2019-09-04 06:10:00+00:00,254.2714,17.4,12.73,47.84626,-54.09684
2019-09-04 06:20:00+00:00,244.9297,17.4,12.81,47.84626,-54.09684
2019-09-04 06:30:00+00:00,236.7965,17.39,12.81,47.84626,-54.09684
2019-09-04 06:40:00+00:00,225.2448,17.39,12.81,47.84626,-54.09684
2019-09-04 06:50:00+00:00,213.9614,17.39,12.89,47.84626,-54.09684
2019-09-04 07:00:00+00:00,207.3714,17.39,12.81,47.84626,-54.09684
2019-09-04 07:10:00+00:00,200.9014,17.39,12.73,47.84626,-54.09684
2019-09-04 07:20:00+00:00,192.6248,17.39,12.81,47.84626,-54.09684
2019-09-04 07:30:00+00:00,189.3498,17.39,12.81,47.84626,-54.09684
2019-09-04 07:40:00+00:00,183.9765,17.39,12.81,47.84626,-54.09684
2019-09-04 07:50:00+00:00,176.3382,17.39,12.81,47.84626,-54.09684
2019-09-04 08:00:00+00:00,176.0581,17.39,12.81,47.84626,-54.09684
2019-09-04 08:10:00+00:00,176.1414,17.39,12.73,47.84626,-54.09684
2019-09-04 08:20:00+00:00,173.3582,17.38,12.81,47.84626,-54.09684
2019-09-04 08:30:00+00:00,171.8815,17.38,12.81,47.84626,-54.09684
2019-09-04 08:40:00+00:00,173.3598,17.38,12.81,47.84626,-54.09684
2019-09-04 08:50:00+00:00,174.4265,17.37,12.81,47.84626,-54.09684
2019-09-04 09:00:00+00:00,173.3648,17.37,12.81,47.84626,-54.09684
2019-09-04 09:10:00+00:00,176.9898,17.36,12.73,47.84626,-54.09684
2019-09-04 09:20:00+00:00,181.7498,17.36,12.81,47.84626,-54.09684
2019-09-04 09:30:00+00:00,184.0382,17.36,12.81,47.84626,-54.09684
2019-09-04 09:40:00+00:00,189.1398,17.36,12.81,47.84626,-54.09684
2019-09-04 09:50:00+00:00,194.1931,17.35,12.81,47.84626,-54.09684
2019-09-04 10:00:00+00:00,197.1731,17.36,12.81,47.84626,-54.09684
2019-09-04 10:10:00+00:00,200.1698,17.36,12.73,47.84626,-54.09684
2019-09-04 10:20:00+00:00,204.7515,17.35,12.81,47.84626,-54.09684
2019-09-04 10:30:00+00:00,209.9598,17.34,12.89,47.84626,-54.09684
2019-09-04 10:40:00+00:00,212.0631,17.35,12.89,47.84626,-54.09684
2019-09-04 10:50:00+00:00,214.4531,17.35,12.89,47.84626,-54.09684
2019-09-04 11:00:00+00:00,221.4531,17.35,12.89,47.84626,-54.09684
2019-09-04 11:10:00+00:00,225.0882,17.36,13.05,47.84626,-54.09684
2019-09-04 11:20:00+00:00,227.7265,17.36,13.21,47.84626,-54.09684
2019-09-04 11:30:00+00:00,232.2914,17.37,13.21,47.84626,-54.09684
2019-09-04 11:40:00+00:00,237.5247,17.39,13.29,47.84626,-54.09684
2019-09-04 11:50:00+00:00,240.2981,17.39,13.29,47.84626,-54.09684
2019-09-04 12:00:00+00:00,243.0331,17.38,13.29,47.84626,-54.09684
2019-09-04 12:10:00+00:00,249.4397,17.38,13.29,47.84626,-54.09684
2019-09-04 12:20:00+00:00,256.7981,17.38,13.53,47.84626,-54.09684
2019-09-04 12:30:00+00:00,264.163,17.38,13.76,47.84626,-54.09684
2019-09-04 12:40:00+00:00,270.0197,17.39,13.92,47.84626,-54.09684
2019-09-04 12:50:00+00:00,277.5464,17.39,14.0,47.84626,-54.09684
2019-09-04 13:00:00+00:00,287.3297,17.39,15.6,47.84626,-54.09684
2019-09-04 13:10:00+00:00,296.2914,17.39,15.6,47.84626,-54.09684
2019-09-04 13:20:00+00:00,302.0014,17.39,15.83,47.84626,-54.09684
2019-09-04 13:30:00+00:00,308.0613,17.38,15.44,47.84626,-54.09684
2019-09-04 13:40:00+00:00,318.2047,17.37,14.64,47.84626,-54.09684
2019-09-04 13:50:00+00:00,325.473,17.37,14.64,47.84626,-54.09684
2019-09-04 14:00:00+00:00,332.3813,17.37,14.48,47.84626,-54.09684
2019-09-04 14:10:00+00:00,340.728,17.37,14.4,47.84626,-54.09684
2019-09-04 14:20:00+00:00,345.7847,17.37,14.64,47.84626,-54.09684
2019-09-04 14:30:00+00:00,347.4946,17.38,14.64,47.84626,-54.09684
2019-09-04 14:40:00+00:00,352.1679,17.38,14.64,47.84626,-54.09684
2019-09-04 14:50:00+00:00,358.303,17.38,14.64,47.84626,-54.09684
2019-09-04 15:00:00+00:00,359.1829,17.39,14.56,47.84626,-54.09684
2019-09-04 15:10:00+00:00,359.5529,17.39,14.56,47.84626,-54.09684
2019-09-04 15:20:00+00:00,360.9346,17.39,14.48,47.84626,-54.09684
2019-09-04 15:30:00+00:00,361.0729,17.39,14.32,47.84626,-54.09684
2019-09-04 15:40:00+00:00,356.9713,17.39,14.48,47.84626,-54.09684
2019-09-04 15:50:00+00:00,354.6462,17.38,14.48,47.84626,-54.09684
2019-09-04 16:00:00+00:00,356.8212,17.38,14.4,47.84626,-54.09684
2019-09-04 16:10:00+00:00,352.4729,17.37,14.48,47.84626,-54.09684
2019-09-04 16:20:00+00:00,348.1647,17.37,14.32,47.84626,-54.09684
2019-09-04 16:30:00+00:00,346.2014,17.38,14.4,47.84626,-54.09684
2019-09-04 16:40:00+00:00,344.2547,17.38,14.48,47.84626,-54.09684
2019-09-04 16:50:00+00:00,340.6396,17.39,14.48,47.84626,-54.09684
2019-09-04 17:00:00+00:00,338.9997,17.39,14.32,47.84626,-54.09684
2019-09-04 17:10:00+00:00,337.4014,17.4,14.32,47.84626,-54.09684
2019-09-04 17:20:00+00:00,331.4063,17.4,14.4,47.84626,-54.09684
2019-09-04 17:30:00+00:00,326.1946,17.4,14.24,47.84626,-54.09684
2019-09-04 17:40:00+00:00,321.803,17.4,14.24,47.84626,-54.09684
2019-09-04 17:50:00+00:00,313.2497,17.43,14.24,47.84626,-54.09684
2019-09-04 18:00:00+00:00,304.4014,17.48,14.16,47.84626,-54.09684
2019-09-04 18:10:00+00:00,294.8197,17.49,14.08,47.84626,-54.09684
2019-09-04 18:20:00+00:00,282.6397,17.47,14.16,47.84626,-54.09684
2019-09-04 18:30:00+00:00,271.3731,17.46,14.08,47.84626,-54.09684
2019-09-04 18:40:00+00:00,262.9814,17.44,14.08,47.84626,-54.09684
2019-09-04 18:50:00+00:00,255.3047,17.45,14.08,47.84626,-54.09684
2019-09-04 19:00:00+00:00,245.7264,17.49,14.0,47.84626,-54.09684
2019-09-04 19:10:00+00:00,235.4514,17.5,13.84,47.84626,-54.09684
2019-09-04 19:20:00+00:00,226.5964,17.59,13.92,47.84626,-54.09684
2019-09-04 19:30:00+00:00,217.9081,17.6,13.92,47.84626,-54.09684
2019-09-04 19:40:00+00:00,208.7115,17.62,13.92,47.84626,-54.09684
2019-09-04 19:50:00+00:00,201.0432,17.67,13.92,47.84626,-54.09684
2019-09-04 20:00:00+00:00,195.5748,17.7,13.84,47.84626,-54.09684
2019-09-04 20:10:00+00:00,189.2015,17.7,13.76,47.84626,-54.09684
2019-09-04 20:20:00+00:00,185.4381,17.7,13.84,47.84626,-54.09684
2019-09-04 20:30:00+00:00,185.2598,17.7,13.84,47.84626,-54.09684
2019-09-04 20:40:00+00:00,185.6648,17.7,13.84,47.84626,-54.09684
2019-09-04 20:50:00+00:00,187.1131,17.7,13.92,47.84626,-54.09684
2019-09-04 21:00:00+00:00,188.4081,17.7,13.76,47.84626,-54.09684
2019-09-04 21:10:00+00:00,188.8998,17.69,13.6,47.84626,-54.09684
2019-09-04 21:20:00+00:00,191.7014,17.64,13.6,47.84626,-54.09684
2019-09-04 21:30:00+00:00,196.5164,17.6,13.53,47.84626,-54.09684
2019-09-04 21:40:00+00:00,198.7898,17.6,13.53,47.84626,-54.09684
2019-09-04 21:50:00+00:00,199.2214,17.62,13.44,47.84626,-54.09684
2019-09-04 22:00:00+00:00,204.7464,17.6,13.37,47.84626,-54.09684
2019-09-04 22:10:00+00:00,211.7881,17.6,13.21,47.84626,-54.09684
2019-09-04 22:20:00+00:00,215.0764,17.6,13.21,47.84626,-54.09684
2019-09-04 22:30:00+00:00,214.7564,17.62,13.13,47.84626,-54.09684
2019-09-04 22:40:00+00:00,216.3415,17.69,13.13,47.84626,-54.09684
2019-09-04 22:50:00+00:00,220.1198,17.69,13.13,47.84626,-54.09684
2019-09-04 23:00:00+00:00,221.9598,17.6,13.05,47.84626,-54.09684
2019-09-04 23:10:00+00:00,223.3231,17.6,12.97,47.84626,-54.09684
2019-09-04 23:20:00+00:00,225.7764,17.6,12.97,47.84626,-54.09684
2019-09-04 23:30:00+00:00,227.723,17.6,12.97,47.84626,-54.09684
2019-09-04 23:40:00+00:00,225.2397,17.6,13.05,47.84626,-54.09684
2019-09-04 23:50:00+00:00,222.8848,17.63,13.05,47.84626,-54.09684
